{"data":{"norad_id":62884,"intl_designator":"2025-024F","name":"STARLINK-11437 [DTC]","alt_names":[],"object_type":"PAYLOAD","status":"ACTIVE","operator":null,"country":"US","launch_date":"2025-02-04","launch_site_code":"AFETR","launch_vehicle":null,"mission":null,"orbit_class":"UNKNOWN","rcs_meters":null,"size_class":null,"mass_kg":null,"dimensions":null,"purposes":["comms"],"wikipedia_slug":null,"has_3d_model":false,"image_url":null,"decayed_at":null,"tle_current":{"epoch":"2026-09-20T21:09:22.659264Z","epoch_age_seconds":135253,"freshness":"FRESH","line1":"1 62884U 25024F   26263.88151226  .00159822  00000+0  12173-2 0  9995","line2":"2 62884  42.9996  85.0444 0001441 296.4421  63.6299 15.70994058 94165","mean_motion":15.70994058,"eccentricity":0.0001441,"inclination_deg":42.9996,"raan_deg":85.0444,"arg_perigee_deg":296.4421,"mean_anomaly_deg":63.6299,"bstar":0.0012173,"rev_number":9416,"period_min":91.661708882161,"perigee_km":355.08437392181,"apogee_km":357.0251679902,"semimajor_km":6734.191770956,"source":"CELESTRAK","updated_at":"2026-09-22T09:00:49.702736Z"}}}